Time,TemperatureF,DewpointF,PressureIn,WindDirection,WindDirectionDegrees,WindSpeedMPH,WindSpeedGustMPH,Humidity,HourlyPrecipIn,Conditions,Clouds,dailyrainin,SoftwareType,DateUTC
2013-07-12 00:00:00,51.5,49.5,30.00,WSW,252,0.0,0.0,93,0.00,,,0.00,Wunderground v.1.15,2013-07-12 07:00:00,
2013-07-12 00:10:00,51.4,49.4,30.00,WSW,252,0.0,0.0,93,0.00,,,0.00,Wunderground v.1.15,2013-07-12 07:10:00,
2013-07-12 00:20:00,51.3,49.3,30.00,SW,227,0.0,0.0,93,0.00,,,0.00,Wunderground v.1.15,2013-07-12 07:20:00,
2013-07-12 00:30:00,51.0,49.0,30.00,SW,227,0.0,0.0,93,0.00,,,0.00,Wunderground v.1.15,2013-07-12 07:30:00,
2013-07-12 00:40:00,50.8,49.1,30.00,SW,227,0.0,0.0,94,0.00,,,0.00,Wunderground v.1.15,2013-07-12 07:40:00,
2013-07-12 00:50:00,50.6,48.9,30.00,SW,227,0.0,0.0,94,0.00,,,0.00,Wunderground v.1.15,2013-07-12 07:50:00,
2013-07-12 01:00:00,50.4,48.7,30.00,SW,227,0.0,0.0,94,0.00,,,0.00,Wunderground v.1.15,2013-07-12 08:00:00,
2013-07-12 01:10:00,50.2,48.5,30.00,SW,227,0.0,0.0,94,0.00,,,0.00,Wunderground v.1.15,2013-07-12 08:10:00,
2013-07-12 01:20:00,49.9,48.5,30.00,SW,227,0.0,0.0,95,0.00,,,0.00,Wunderground v.1.15,2013-07-12 08:20:00,
2013-07-12 01:30:00,49.7,48.3,30.00,SW,227,0.0,0.0,95,0.00,,,0.00,Wunderground v.1.15,2013-07-12 08:30:00,
2013-07-12 01:40:00,49.5,48.1,30.00,SW,227,0.0,0.0,95,0.00,,,0.00,Wunderground v.1.15,2013-07-12 08:40:00,
2013-07-12 01:50:00,49.4,48.3,30.00,SW,227,0.0,0.0,96,0.00,,,0.00,Wunderground v.1.15,2013-07-12 08:50:00,
2013-07-12 01:55:00,49.4,48.3,30.00,SW,227,0.0,0.0,96,0.00,,,0.00,Wunderground v.1.15,2013-07-12 08:55:00,
2013-07-12 02:00:00,49.5,48.4,30.00,SW,227,0.0,0.0,96,0.00,,,0.00,Wunderground v.1.15,2013-07-12 09:00:00,
2013-07-12 02:10:00,49.6,48.8,30.00,SW,227,0.0,0.0,97,0.00,,,0.00,Wunderground v.1.15,2013-07-12 09:10:00,
2013-07-12 02:20:00,49.8,49.0,30.00,SW,227,0.0,0.0,97,0.00,,,0.00,Wunderground v.1.15,2013-07-12 09:20:00,
2013-07-12 02:30:00,49.9,49.1,30.00,SW,227,0.0,0.0,97,0.00,,,0.00,Wunderground v.1.15,2013-07-12 09:30:00,
2013-07-12 02:40:00,49.9,48.8,30.00,SW,227,0.0,0.0,96,0.00,,,0.00,Wunderground v.1.15,2013-07-12 09:40:00,
2013-07-12 02:50:00,49.8,48.7,30.00,SW,227,0.0,0.0,96,0.00,,,0.00,Wunderground v.1.15,2013-07-12 09:50:00,
2013-07-12 03:00:00,49.9,49.1,30.00,SW,227,0.0,0.0,97,0.00,,,0.00,Wunderground v.1.15,2013-07-12 10:00:00,
2013-07-12 03:10:00,50.1,49.3,30.00,SW,227,0.0,0.0,97,0.00,,,0.00,Wunderground v.1.15,2013-07-12 10:10:00,
2013-07-12 03:20:00,50.3,49.5,30.00,SW,227,0.0,0.0,97,0.00,,,0.00,Wunderground v.1.15,2013-07-12 10:20:00,
2013-07-12 03:30:00,50.3,49.2,30.00,SW,227,0.0,0.0,96,0.00,,,0.00,Wunderground v.1.15,2013-07-12 10:30:00,
2013-07-12 03:40:00,50.1,49.0,30.00,SW,227,0.0,0.0,96,0.00,,,0.00,Wunderground v.1.15,2013-07-12 10:40:00,
2013-07-12 03:50:00,49.9,48.8,30.00,SW,227,0.0,0.0,96,0.00,,,0.00,Wunderground v.1.15,2013-07-12 10:50:00,
2013-07-12 04:00:00,49.9,48.8,30.00,SW,227,0.0,0.0,96,0.00,,,0.00,Wunderground v.1.15,2013-07-12 11:00:00,
2013-07-12 04:10:00,49.9,48.8,30.00,SW,227,0.0,0.0,96,0.00,,,0.00,Wunderground v.1.15,2013-07-12 11:10:00,
2013-07-12 04:20:00,49.9,48.8,30.00,SW,227,0.0,0.0,96,0.00,,,0.00,Wunderground v.1.15,2013-07-12 11:20:00,
2013-07-12 04:30:00,50.0,48.9,30.00,SW,227,0.0,0.0,96,0.00,,,0.00,Wunderground v.1.15,2013-07-12 11:30:00,
2013-07-12 04:35:00,50.1,49.0,30.00,SW,227,0.0,0.0,96,0.00,,,0.00,Wunderground v.1.15,2013-07-12 11:35:00,
2013-07-12 04:45:00,50.1,49.0,30.00,SW,227,0.0,0.0,96,0.00,,,0.00,Wunderground v.1.15,2013-07-12 11:45:00,
2013-07-12 04:55:00,50.2,48.8,30.00,WSW,248,0.0,0.0,95,0.00,,,0.00,Wunderground v.1.15,2013-07-12 11:55:00,
2013-07-12 05:00:00,50.2,48.8,30.00,WNW,289,0.0,0.0,95,0.00,,,0.00,Wunderground v.1.15,2013-07-12 12:00:00,
2013-07-12 05:10:00,50.3,48.9,30.00,WNW,289,0.0,0.0,95,0.00,,,0.00,Wunderground v.1.15,2013-07-12 12:10:00,
2013-07-12 05:20:00,50.4,48.7,30.00,NNE,23,0.0,0.0,94,0.00,,,0.00,Wunderground v.1.15,2013-07-12 12:20:00,
2013-07-12 05:30:00,50.3,48.6,30.01,NNE,23,0.0,0.0,94,0.00,,,0.00,Wunderground v.1.15,2013-07-12 12:30:00,
2013-07-12 05:40:00,50.2,48.5,30.00,NNE,23,0.0,0.0,94,0.00,,,0.00,Wunderground v.1.15,2013-07-12 12:40:00,
2013-07-12 05:50:00,50.3,48.9,30.01,NNE,23,0.0,0.0,95,0.00,,,0.00,Wunderground v.1.15,2013-07-12 12:50:00,
2013-07-12 05:55:00,50.3,48.6,30.00,NNE,23,0.0,0.0,94,0.00,,,0.00,Wunderground v.1.15,2013-07-12 12:55:00,
2013-07-12 06:00:00,50.3,48.6,30.00,NNE,23,0.0,0.0,94,0.00,,,0.00,Wunderground v.1.15,2013-07-12 13:00:00,
2013-07-12 06:10:00,50.4,48.7,30.00,NNE,23,0.0,0.0,94,0.00,,,0.00,Wunderground v.1.15,2013-07-12 13:10:00,
2013-07-12 06:20:00,50.5,49.1,30.00,NNE,23,0.0,0.0,95,0.00,,,0.00,Wunderground v.1.15,2013-07-12 13:20:00,
2013-07-12 06:30:00,50.6,48.9,30.00,NNE,23,0.0,0.0,94,0.00,,,0.00,Wunderground v.1.15,2013-07-12 13:30:00,
2013-07-12 06:40:00,50.7,49.0,30.00,NNE,23,0.0,0.0,94,0.00,,,0.00,Wunderground v.1.15,2013-07-12 13:40:00,
2013-07-12 06:45:00,50.8,49.1,30.01,NNE,23,0.0,0.0,94,0.00,,,0.00,Wunderground v.1.15,2013-07-12 13:45:00,
2013-07-12 06:55:00,51.0,49.3,30.00,NNE,23,0.0,0.0,94,0.00,,,0.00,Wunderground v.1.15,2013-07-12 13:55:00,
2013-07-12 07:00:00,51.1,49.4,30.00,NNE,23,0.0,0.0,94,0.00,,,0.00,Wunderground v.1.15,2013-07-12 14:00:00,
2013-07-12 07:10:00,51.2,49.2,30.00,NNE,23,0.0,0.0,93,0.00,,,0.00,Wunderground v.1.15,2013-07-12 14:10:00,
2013-07-12 07:20:00,51.5,49.5,30.00,NNE,23,0.0,0.0,93,0.00,,,0.00,Wunderground v.1.15,2013-07-12 14:20:00,
2013-07-12 07:30:00,51.8,49.8,30.00,NNE,23,0.0,0.0,93,0.00,,,0.00,Wunderground v.1.15,2013-07-12 14:30:00,
2013-07-12 07:40:00,52.3,50.0,30.00,NNE,23,0.0,0.0,92,0.00,,,0.00,Wunderground v.1.15,2013-07-12 14:40:00,
2013-07-12 07:45:00,52.5,50.2,30.01,NNE,23,0.0,0.0,92,0.00,,,0.00,Wunderground v.1.15,2013-07-12 14:45:00,
2013-07-12 07:55:00,52.7,50.1,30.01,NNE,23,0.0,0.0,91,0.00,,,0.00,Wunderground v.1.15,2013-07-12 14:55:00,
2013-07-12 08:00:00,52.9,50.3,30.01,NW,309,0.0,1.0,91,0.00,,,0.00,Wunderground v.1.15,2013-07-12 15:00:00,
2013-07-12 08:10:00,52.9,50.0,30.01,NW,308,0.0,1.0,90,0.00,,,0.00,Wunderground v.1.15,2013-07-12 15:10:00,
2013-07-12 08:20:00,53.3,50.1,30.01,NNW,344,0.0,1.0,89,0.00,,,0.00,Wunderground v.1.15,2013-07-12 15:20:00,
2013-07-12 08:30:00,53.5,50.0,30.02,NW,323,1.0,1.0,88,0.00,,,0.00,Wunderground v.1.15,2013-07-12 15:30:00,
2013-07-12 08:40:00,53.8,50.0,30.02,NW,319,0.0,0.0,87,0.00,,,0.00,Wunderground v.1.15,2013-07-12 15:40:00,
2013-07-12 08:50:00,54.2,50.1,30.01,North,5,0.0,0.0,86,0.00,,,0.00,Wunderground v.1.15,2013-07-12 15:50:00,
2013-07-12 09:00:00,54.0,49.9,30.01,WNW,293,1.0,1.0,86,0.00,,,0.00,Wunderground v.1.15,2013-07-12 16:00:00,
2013-07-12 09:10:00,54.5,50.7,30.02,WNW,301,0.0,2.0,87,0.00,,,0.00,Wunderground v.1.15,2013-07-12 16:10:00,
2013-07-12 09:20:00,56.2,51.1,30.02,NNE,12,1.0,2.0,83,0.00,,,0.00,Wunderground v.1.15,2013-07-12 16:20:00,
2013-07-12 09:30:00,57.2,51.1,30.02,North,355,2.0,2.0,80,0.00,,,0.00,Wunderground v.1.15,2013-07-12 16:30:00,
2013-07-12 09:35:00,57.4,50.9,30.02,WNW,291,2.0,4.0,79,0.00,,,0.00,Wunderground v.1.15,2013-07-12 16:35:00,
2013-07-12 09:45:00,58.9,53.1,30.02,SE,134,1.0,2.0,81,0.00,,,0.00,Wunderground v.1.15,2013-07-12 16:45:00,
2013-07-12 09:55:00,60.2,52.2,30.01,NNE,18,1.0,4.0,75,0.00,,,0.00,Wunderground v.1.15,2013-07-12 16:55:00,
2013-07-12 10:00:00,60.3,52.0,30.02,NW,319,1.0,1.0,74,0.00,,,0.00,Wunderground v.1.15,2013-07-12 17:00:00,
2013-07-12 10:15:00,60.8,52.8,30.02,NNW,342,1.0,2.0,75,0.00,,,0.00,Wunderground v.1.15,2013-07-12 17:15:00,
2013-07-12 10:25:00,61.7,53.7,30.02,North,360,1.0,2.0,75,0.00,,,0.00,Wunderground v.1.15,2013-07-12 17:25:00,
2013-07-12 10:35:00,62.6,52.3,30.02,SW,218,2.0,3.0,69,0.00,,,0.00,Wunderground v.1.15,2013-07-12 17:35:00,
2013-07-12 10:40:00,63.3,53.0,30.02,NW,309,2.0,3.0,69,0.00,,,0.00,Wunderground v.1.15,2013-07-12 17:40:00,
2013-07-12 10:50:00,64.0,52.0,30.01,West,280,4.0,4.0,65,0.00,,,0.00,Wunderground v.1.15,2013-07-12 17:50:00,
2013-07-12 11:00:00,64.4,52.0,30.02,NNE,22,3.0,4.0,64,0.00,,,0.00,Wunderground v.1.15,2013-07-12 18:00:00,
2013-07-12 11:10:00,64.7,53.1,30.01,NW,325,3.0,4.0,66,0.00,,,0.00,Wunderground v.1.15,2013-07-12 18:10:00,
2013-07-12 11:25:00,66.2,51.9,30.01,SSW,211,4.0,4.0,60,0.00,,,0.00,Wunderground v.1.15,2013-07-12 18:25:00,
2013-07-12 11:35:00,66.5,51.3,30.02,ENE,61,4.0,4.0,58,0.00,,,0.00,Wunderground v.1.15,2013-07-12 18:35:00,
2013-07-12 11:40:00,67.0,50.8,30.02,NW,310,4.0,4.0,56,0.00,,,0.00,Wunderground v.1.15,2013-07-12 18:40:00,
2013-07-12 11:50:00,66.4,49.7,30.02,WSW,238,5.0,5.0,55,0.00,,,0.00,Wunderground v.1.15,2013-07-12 18:50:00,
2013-07-12 12:00:00,67.6,50.9,30.02,NNE,22,3.0,3.0,55,0.00,,,0.00,Wunderground v.1.15,2013-07-12 19:00:00,
2013-07-12 12:10:00,68.3,49.5,30.02,NNE,19,3.0,3.0,51,0.00,,,0.00,Wunderground v.1.15,2013-07-12 19:10:00,
2013-07-12 12:25:00,68.4,50.6,30.02,NNE,27,4.0,4.0,53,0.00,,,0.00,Wunderground v.1.15,2013-07-12 19:25:00,
2013-07-12 12:35:00,67.7,49.4,30.02,West,280,5.0,8.0,52,0.00,,,0.00,Wunderground v.1.15,2013-07-12 19:35:00,
2013-07-12 12:45:00,68.4,49.6,30.02,ENE,67,3.0,4.0,51,0.00,,,0.00,Wunderground v.1.15,2013-07-12 19:45:00,
2013-07-12 12:55:00,68.4,50.6,30.02,West,275,4.0,10.0,53,0.00,,,0.00,Wunderground v.1.15,2013-07-12 19:55:00,
2013-07-12 13:00:00,68.5,50.2,30.03,East,98,4.0,4.0,52,0.00,,,0.00,Wunderground v.1.15,2013-07-12 20:00:00,
2013-07-12 13:10:00,68.9,49.5,30.03,North,11,3.0,3.0,50,0.00,,,0.00,Wunderground v.1.15,2013-07-12 20:10:00,
2013-07-12 13:25:00,69.2,50.3,30.03,NW,313,3.0,10.0,51,0.00,,,0.00,Wunderground v.1.15,2013-07-12 20:25:00,
2013-07-12 13:35:00,68.5,50.7,30.03,WNW,291,6.0,7.0,53,0.00,,,0.00,Wunderground v.1.15,2013-07-12 20:35:00,
2013-07-12 13:50:00,69.0,51.2,30.02,NW,323,3.0,8.0,53,0.00,,,0.00,Wunderground v.1.15,2013-07-12 20:50:00,
2013-07-12 14:00:00,69.5,49.5,30.03,North,355,5.0,7.0,49,0.00,,,0.00,Wunderground v.1.15,2013-07-12 21:00:00,
2013-07-12 14:10:00,68.1,50.3,30.03,North,5,7.0,7.0,53,0.00,,,0.00,Wunderground v.1.15,2013-07-12 21:10:00,
2013-07-12 14:20:00,68.6,50.8,30.03,North,360,5.0,5.0,53,0.00,,,0.00,Wunderground v.1.15,2013-07-12 21:20:00,
2013-07-12 14:30:00,68.3,49.5,30.03,West,280,5.0,10.0,51,0.00,,,0.00,Wunderground v.1.15,2013-07-12 21:30:00,
2013-07-12 14:40:00,68.5,48.6,30.03,WNW,297,6.0,6.0,49,0.00,,,0.00,Wunderground v.1.15,2013-07-12 21:40:00,
2013-07-12 14:50:00,69.0,51.7,30.03,WSW,242,4.0,4.0,54,0.00,,,0.00,Wunderground v.1.15,2013-07-12 21:50:00,
2013-07-12 15:00:00,69.4,50.5,30.03,North,360,4.0,4.0,51,0.00,,,0.00,Wunderground v.1.15,2013-07-12 22:00:00,
2013-07-12 15:10:00,69.2,51.3,30.03,NNW,328,4.0,4.0,53,0.00,,,0.00,Wunderground v.1.15,2013-07-12 22:10:00,
2013-07-12 15:20:00,68.3,51.5,30.03,NNW,337,5.0,5.0,55,0.00,,,0.00,Wunderground v.1.15,2013-07-12 22:20:00,
2013-07-12 15:25:00,68.2,50.9,30.03,North,355,5.0,5.0,54,0.00,,,0.00,Wunderground v.1.15,2013-07-12 22:25:00,
2013-07-12 15:35:00,68.6,51.8,30.03,NNE,16,4.0,8.0,55,0.00,,,0.00,Wunderground v.1.15,2013-07-12 22:35:00,
2013-07-12 15:45:00,68.3,50.0,30.03,South,187,5.0,5.0,52,0.00,,,0.00,Wunderground v.1.15,2013-07-12 22:45:00,
2013-07-12 15:50:00,68.3,50.0,30.03,North,350,4.0,4.0,52,0.00,,,0.00,Wunderground v.1.15,2013-07-12 22:50:00,
2013-07-12 16:00:00,68.1,50.3,30.03,NNW,346,4.0,5.0,53,0.00,,,0.00,Wunderground v.1.15,2013-07-12 23:00:00,
2013-07-12 16:10:00,67.7,50.5,30.03,WNW,298,5.0,8.0,54,0.00,,,0.00,Wunderground v.1.15,2013-07-12 23:10:00,
2013-07-12 16:20:00,67.4,49.2,30.03,NNW,336,5.0,5.0,52,0.00,,,0.00,Wunderground v.1.15,2013-07-12 23:20:00,
2013-07-12 16:40:00,67.1,50.4,30.03,WNW,285,5.0,5.0,55,0.00,,,0.00,Wunderground v.1.15,2013-07-12 23:40:00,
2013-07-12 17:00:00,66.4,50.7,30.03,North,355,4.0,5.0,57,0.00,,,0.00,Wunderground v.1.15,2013-07-13 00:00:00,
2013-07-12 17:10:00,65.1,50.0,30.02,WNW,301,3.0,3.0,58,0.00,,,0.00,Wunderground v.1.15,2013-07-13 00:10:00,
2013-07-12 17:20:00,64.4,49.8,30.03,NW,307,5.0,5.0,59,0.00,,,0.00,Wunderground v.1.15,2013-07-13 00:20:00,
2013-07-12 17:30:00,63.9,50.6,30.03,WNW,300,6.0,6.0,62,0.00,,,0.00,Wunderground v.1.15,2013-07-13 00:30:00,
2013-07-12 17:40:00,63.4,50.1,30.03,West,263,7.0,7.0,62,0.00,,,0.00,Wunderground v.1.15,2013-07-13 00:40:00,
2013-07-12 17:55:00,63.3,50.5,30.03,WNW,298,6.0,9.0,63,0.00,,,0.00,Wunderground v.1.15,2013-07-13 00:55:00,
2013-07-12 18:05:00,63.0,49.8,30.03,WNW,298,6.0,6.0,62,0.00,,,0.00,Wunderground v.1.15,2013-07-13 01:05:00,
2013-07-12 18:15:00,63.1,50.3,30.03,NW,306,4.0,8.0,63,0.00,,,0.00,Wunderground v.1.15,2013-07-13 01:15:00,
2013-07-12 18:20:00,63.1,49.9,30.03,WNW,297,5.0,7.0,62,0.00,,,0.00,Wunderground v.1.15,2013-07-13 01:20:00,
2013-07-12 18:35:00,63.5,50.7,30.03,WNW,297,3.0,4.0,63,0.00,,,0.00,Wunderground v.1.15,2013-07-13 01:35:00,
2013-07-12 18:40:00,63.5,51.1,30.03,WNW,282,3.0,3.0,64,0.00,,,0.00,Wunderground v.1.15,2013-07-13 01:40:00,
2013-07-12 18:50:00,63.4,51.4,30.03,NE,40,4.0,4.0,65,0.00,,,0.00,Wunderground v.1.15,2013-07-13 01:50:00,
2013-07-12 19:00:00,63.0,51.9,30.03,North,9,4.0,10.0,67,0.00,,,0.00,Wunderground v.1.15,2013-07-13 02:00:00,
2013-07-12 19:10:00,62.4,51.3,30.03,WNW,300,4.0,14.0,67,0.00,,,0.00,Wunderground v.1.15,2013-07-13 02:10:00,
2013-07-12 19:20:00,62.1,51.4,30.03,NW,307,4.0,5.0,68,0.00,,,0.00,Wunderground v.1.15,2013-07-13 02:20:00,
2013-07-12 19:35:00,61.2,50.6,30.04,WNW,285,3.0,3.0,68,0.00,,,0.00,Wunderground v.1.15,2013-07-13 02:35:00,
2013-07-12 19:45:00,59.8,50.0,30.04,WNW,288,4.0,4.0,70,0.00,,,0.00,Wunderground v.1.15,2013-07-13 02:45:00,
2013-07-12 19:55:00,58.9,49.5,30.04,WSW,244,4.0,4.0,71,0.00,,,0.00,Wunderground v.1.15,2013-07-13 02:55:00,
2013-07-12 20:00:00,58.4,49.4,30.04,West,269,5.0,5.0,72,0.00,,,0.00,Wunderground v.1.15,2013-07-13 03:00:00,
2013-07-12 20:10:00,58.0,49.4,30.04,WNW,296,4.0,4.0,73,0.00,,,0.00,Wunderground v.1.15,2013-07-13 03:10:00,
2013-07-12 20:20:00,57.6,49.4,30.05,NW,324,3.0,4.0,74,0.00,,,0.00,Wunderground v.1.15,2013-07-13 03:20:00,
2013-07-12 20:35:00,57.2,49.0,30.05,NW,319,4.0,8.0,74,0.00,,,0.00,Wunderground v.1.15,2013-07-13 03:35:00,
2013-07-12 20:45:00,56.8,49.3,30.05,WNW,294,4.0,6.0,76,0.00,,,0.00,Wunderground v.1.15,2013-07-13 03:45:00,
2013-07-12 20:55:00,56.5,49.7,30.05,NNW,333,4.0,5.0,78,0.00,,,0.00,Wunderground v.1.15,2013-07-13 03:55:00,
2013-07-12 21:00:00,56.4,49.6,30.05,NW,320,4.0,4.0,78,0.00,,,0.00,Wunderground v.1.15,2013-07-13 04:00:00,
2013-07-12 21:05:00,56.2,49.8,30.05,NNW,344,3.0,4.0,79,0.00,,,0.00,Wunderground v.1.15,2013-07-13 04:05:00,
2013-07-12 21:10:00,56.2,49.8,30.05,NW,311,3.0,4.0,79,0.00,,,0.00,Wunderground v.1.15,2013-07-13 04:10:00,
2013-07-12 21:20:00,55.7,50.0,30.06,West,281,3.0,3.0,81,0.00,,,0.00,Wunderground v.1.15,2013-07-13 04:20:00,
2013-07-12 21:25:00,55.7,50.0,30.06,WNW,284,3.0,11.0,81,0.00,,,0.00,Wunderground v.1.15,2013-07-13 04:25:00,
2013-07-12 21:30:00,55.5,50.1,30.06,WSW,238,3.0,3.0,82,0.00,,,0.00,Wunderground v.1.15,2013-07-13 04:30:00,
2013-07-12 21:35:00,55.3,49.9,30.06,NW,314,3.0,4.0,82,0.00,,,0.00,Wunderground v.1.15,2013-07-13 04:35:00,
2013-07-12 21:45:00,55.1,50.0,30.06,WNW,298,3.0,3.0,83,0.00,,,0.00,Wunderground v.1.15,2013-07-13 04:45:00,
2013-07-12 21:55:00,54.9,50.2,30.06,WNW,284,2.0,3.0,84,0.00,,,0.00,Wunderground v.1.15,2013-07-13 04:55:00,
2013-07-12 22:00:00,54.7,50.0,30.06,WNW,302,2.0,3.0,84,0.00,,,0.00,Wunderground v.1.15,2013-07-13 05:00:00,
2013-07-12 22:10:00,54.5,50.1,30.07,NW,324,3.0,3.0,85,0.00,,,0.00,Wunderground v.1.15,2013-07-13 05:10:00,
2013-07-12 22:20:00,54.2,49.8,30.07,WNW,283,2.0,2.0,85,0.00,,,0.00,Wunderground v.1.15,2013-07-13 05:20:00,
2013-07-12 22:30:00,54.1,50.0,30.07,NNE,17,2.0,2.0,86,0.00,,,0.00,Wunderground v.1.15,2013-07-13 05:30:00,
2013-07-12 22:40:00,53.8,49.7,30.07,NW,321,1.0,2.0,86,0.00,,,0.00,Wunderground v.1.15,2013-07-13 05:40:00,
2013-07-12 22:45:00,53.7,49.9,30.07,WNW,294,1.0,2.0,87,0.00,,,0.00,Wunderground v.1.15,2013-07-13 05:45:00,
2013-07-12 22:55:00,53.4,49.6,30.07,WNW,296,0.0,0.0,87,0.00,,,0.00,Wunderground v.1.15,2013-07-13 05:55:00,
2013-07-12 23:00:00,53.1,49.6,30.07,West,275,1.0,1.0,88,0.00,,,0.00,Wunderground v.1.15,2013-07-13 06:00:00,
2013-07-12 23:10:00,52.9,49.7,30.07,West,261,0.0,0.0,89,0.00,,,0.00,Wunderground v.1.15,2013-07-13 06:10:00,
2013-07-12 23:20:00,52.7,49.8,30.07,WNW,300,1.0,3.0,90,0.00,,,0.00,Wunderground v.1.15,2013-07-13 06:20:00,
2013-07-12 23:25:00,52.6,49.4,30.06,NW,305,1.0,3.0,89,0.00,,,0.00,Wunderground v.1.15,2013-07-13 06:25:00,
2013-07-12 23:35:00,52.6,49.8,30.07,WNW,287,0.0,1.0,90,0.00,,,0.00,Wunderground v.1.15,2013-07-13 06:35:00,
2013-07-12 23:45:00,52.4,49.6,30.07,North,355,0.0,1.0,90,0.00,,,0.00,Wunderground v.1.15,2013-07-13 06:45:00,
2013-07-12 23:55:00,52.1,49.3,30.07,North,350,0.0,0.0,90,0.00,,,0.00,Wunderground v.1.15,2013-07-13 06:55:00,